STARLINK-1802, 46702

Orbit data source: Space-Track

STARLINK-1802, 46702 is a payload satellite owned by SpaceX/Seattle (US) in LEO that was launched on Sun, 18 Oct 2020 UTC via an FALCON 9 launch vehicle from the Air Force Eastern Test Range (AFETR). Payload-class satellites include a variety of spacecraft equipped with specific instruments for various scientific and technological missions. These include communications satellites like Starlink; space stations such as the ISS; scientific satellites like the Hubble; Earth observation satellites from companies like Planet Labs, Umbra, and HawkEye 360; GPS; miniature CubeSats for education and research; and military/defense satellites.

Loading next visibility...
Identifier
46702, 2020-073AJ
Orbit
LEO
Last TLE update
22 hours ago
Origin
Manufacturer
SpaceX/Seattle
Mission
Operational Commercial Communications
Bus & Motor
STARLINK, Unknown motor
Mass
260 kg wet, ~248 kg dry
Launch date (UTC)
2020-10-18 (5 years ago)
Launch vehicle
FALCON 9
Launch site
Air Force Eastern Test Range (AFETR)
Object type
Payload
Rocket body
Debris
Shape & HBR
Box + 1 Pan, 8.86 m
Radar Cross Section
13.562 m², Large (>1 m²)

Expand to show TLE details & history

TLE from 22 hours ago
0 STARLINK-1802
1 46702U 20073AJ  25128.37879639  .00000591  00000-0  58551-4 0  9994
2 46702  53.0537 152.2103 0000660  70.7790 289.3270 15.06392539251394
Epoch: 2025-05-08T09:05Z
Definitive object data (Epoch: 2025-05-08T09:05:28.008Z)
Latitude
-0.00003°
Longitude
149.39343°
Altitude
547.962 km
Speed
7.589 km/s
True Right ascension
10h 08m 50s
True Declination
0° 00' 00"
Sunlit
Object was in daylight at TLE epoch
Visualization TLE readout
Latitude
-50.888°
Longitude
78.36062°
Altitude
565.224 km
Speed
7.578 km/s
Apparent Right ascension
04h 14m 31s
Apparent Declination
-46° 40' 08"
Sunlit
Object is in daylight
Visualization observer readout
Local Sidereal Time
15:11:51
Azimuth
234.139° WSW
Elevation
-76.783°
Doppler factor
1
Orbital elements
Apogee altitude
547.962 km
Perigee altitude
547.048 km
Semi-major axis
6,925.642 km
Eccentricity
0.000066
Inclination
53.0537°
RAAN
152.2103°
Arg. of periapsis
70.779°
True anomaly
289.31986°
Mean anomaly
289.327°
Eccentric anomaly
289.32343°
Mean motion
3.76576 °/min
BSTAR
0.000058551
Orbital period
95.6 mins
Loading maneuver chart data...
Loading SW <> Apogee altitude chart data...
Loading historical data...
Loading historical data...
Loading historical data...
Loading historical data...
Loading historical data...
Loading historical data...
Loading historical data...

STARLINK-1802 Visibility forecast

Observer location: undefined°, undefined°

Span
Click to sort rows by Start time (UTC) header in descending order
Start Az.
Max El. time (UTC)
Max El. Az.
Max El.
End time (UTC)
End Az.
5 mins2025-05-09 09:25:55.804Z345.096° N2025-05-09 09:27:55.804Z23.518° NE20.428°2025-05-09 09:30:55.804Z72.853° E
6 mins2025-05-09 11:04:55.804Z308.149° NW2025-05-09 11:07:55.804Z179.257° S44.766°2025-05-09 11:10:55.804Z133.626° SE
6 mins2025-05-10 04:17:55.804Z250.268° W2025-05-10 04:19:55.804Z319.026° NNW41.508°2025-05-10 04:23:55.804Z44.67° NE
4 mins2025-05-10 05:58:55.804Z320.132° NNW2025-05-10 05:59:55.804Z338.157° N16.964°2025-05-10 06:02:55.804Z25.83° NE
|